Meteo Giornale » Osservazioni meteo Gran Bretagna » Londra City AP

ore: 06:50 - Osservazioni Meteo Londra City AP
Lat. 51° 30' N Lon. 0° 30' W Alt. 5 metri s.l.m.

sereno Europe/London

4 °C

Sereno

Temp. 24 Ore

4 °C

14 °C

Ovest/Nord-Ovest

16.7 Km/h

Dew point -2 °C

Umidità 64 %

Visibilità  10 Km

Il sole sorge alle ore 05:41

Il sole tramonta alle ore 20:17

Data e Ora Cielo e Fenomeni T °C DP °C Um. % Pres. hPa Vis. km Vento km/h
Oggi h: 06:50 sereno Sereno 4 -2 64 1013 10 O/NO 16.7
Oggi h: 06:20 sereno Sereno 4 -3 60 1013 10 O/NO 18.5
Oggi h: 05:50 sereno Sereno 4 -3 60 1013 10 O/NO 16.7
Oggi h: 05:20 sereno Sereno 4 -2 64 1013 10 O/NO 14.8
Oggi h: 04:50 sereno Sereno 4 -2 64 1012 10 O/NO 16.7
Oggi h: 04:20 sereno Sereno 4 -2 64 1012 10 O/NO 18.5
Oggi h: 03:50 sereno Sereno 4 -2 64 1012 10 O/NO 18.5
Oggi h: 03:20 sereno Sereno 5 -2 60 1012 10 O/NO 20.3
Oggi h: 02:50 sereno Sereno 5 -2 60 1012 10 O/NO 20.3
Oggi h: 02:20 sereno Sereno 5 -2 60 1013 10 O/NO 20.3
Oggi h: 01:50 sereno Sereno 5 -3 56 1013 10 O/NO 25.9
Oggi h: 01:20 sereno Sereno 6 -3 52 1013 10 O/NO 25.9
Oggi h: 00:50 sereno Sereno 6 -3 52 1013 10 O/NO 29.6
Oggi h: 00:20 sereno Sereno 7 -4 45 1013 10 O/NO 27.8
Ieri h: 23:50 sereno Sereno 7 -4 45 1013 10 O/NO 29.6
Ieri h: 23:20 sereno Sereno 8 -4 42 1013 10 O/NO 29.6
Ieri h: 22:50 sereno Sereno 9 -2 45 1013 10 O/NO 22.2
Ieri h: 22:20 sereno Sereno 9 -3 42 1013 10 O/NO 22.2
Ieri h: 21:50 sereno Sereno 10 -2 42 1013 10 O/NO 25.9
Ieri h: 21:20 sereno Sereno 10 -0 49 1012 10 O/NO 25.9
Ieri h: 20:50 sereno Sereno 11 2 53 1012 10 O/NO 25.9
Ieri h: 20:20 sereno Sereno 11 4 61 1012 10 O/NO 20.3
Ieri h: 19:50 molto_nuvoloso Molto Nuvoloso 11 5 66 1012 10 O/NO 16.7
Ieri h: 19:20 coperto_pioggia Pioggia Debole 10 6 76 1012 10 O/NO 16.7
Ieri h: 18:50 coperto_pioggia Pioggia Debole 11 5 66 1012 10 O/NO 25.9
Ieri h: 18:20 coperto_pioggia Pioggia Debole 12 6 66 1012 10 O/NO 22.2
Ieri h: 17:50 coperto_pioggia Pioggia Debole 12 6 66 1012 10 O/NO 22.2
Ieri h: 16:50 coperto_pioggia Pioggia Debole 13 7 66 1012 10 O/SO 18.5
Ieri h: 16:20 molto_nuvoloso Molto Nuvoloso 13 8 71 1012 10 O/SO 14.8
Ieri h: 15:50 coperto_pioggia Pioggia Debole 12 8 76 1013 10 O 22.2
Ieri h: 15:20 coperto Coperto 14 6 58 1013 10 O/SO 24
Ieri h: 14:50 nuvoloso Nuvoloso 14 7 62 1013 10 O/SO 20.3
Ieri h: 14:20 sereno Sereno 14 7 62 1014 10 O/SO 20.3
Ieri h: 13:50 coperto_pioggia Pioggia Debole 13 7 66 1014 10 O/SO 18.5
Ieri h: 13:20 coperto_pioggia Pioggia Debole 14 6 58 1015 10 O 20.3
Ieri h: 12:50 molto_nuvoloso Molto Nuvoloso 14 6 58 1015 10 O/SO 18.5
Ieri h: 12:20 coperto Coperto 14 6 58 1015 10 O 24
Ieri h: 11:50 coperto_pioggia Pioggia Debole 14 6 58 1016 10 O 20.3
Ieri h: 11:20 molto_nuvoloso Molto Nuvoloso 14 6 58 1016 10 O 18.5
Ieri h: 10:50 coperto Coperto 13 6 62 1016 10 O/NO 16.7
Ieri h: 10:20 nuvoloso Nuvoloso 13 6 62 1017 10 O/NO 20.3
Ieri h: 09:50 sereno Sereno 13 6 62 1017 10 SO 13
Ieri h: 09:20 sereno Sereno 12 6 66 1017 10 O 13
Ieri h: 08:50 sereno Sereno 12 6 66 1017 10 O/SO 16.7
Ieri h: 08:20 sereno Sereno 11 6 71 1017 10 O/SO 14.8
Ieri h: 07:50 sereno Sereno 10 6 76 1018 10 SO 11.1